Tracking 31027 objects as of 19-Jul-2025
HD Live streaming from Space Station
objects crossing your sky now

COSMOS 1275 DEB

Track COSMOS 1275 DEB now!
10-day predictions


NORAD ID: 27734
Int'l Code: 1981-053MV
Perigee: 819.9 km
Apogee: 964.1 km
Inclination: 83.1 °
Period: 102.7 minutes
Semi major axis: 7262 km
RCS: 0.0056 m2 (small)
Launch date: June 4, 1981
Source: Commonwealth of Independent States (former USSR) (CIS)
Launch site: PLESETSK MISSILE AND SPACE COMPLEX (PKMTR)

Note: This is SATELLITE DEBRIS
Your satellite tracking list
CREW DRAGON DEMO-2 DEB
Track 1 satellite(s)




NASA's NSSDC Master Catalog

Two Line Element Set (TLE):
1 27734U 81053MP  25199.31310406  .00001722  00000-0  10612-2 0  9998
2 27734  83.1155 322.3538 0099240 225.2866 134.0195 14.02587233509562
Source of the keplerian elements: AFSPC